User: anonymous   Login
Location: Bishop�s Knoyle
(51.0728°N, 2.1714°W)
Time: 11:08:02
(UTC+00:00)
Language:

NUDT-PHONESAT - Orbit

View from above orbital plane
View from above orbital plane
View from above satellite
View from above satellite

Ground track
Ground track

The orbit data is extracted from the following two-line orbital elements,

1 40900U 15049B   21335.18935735  .00007399  00000-0  27069-3 0  9992
2 40900  97.4149 348.3477 0009320 270.7624 154.1825 15.28314061344274
Epoch (UTC): 01 December 2021 04:32:40
Eccentricity: 0.0009320
inclination: 97.4149°
perigee height: 474 km
apogee height: 487 km
right ascension of ascending node: 348.3477°
argument of perigee: 270.7624°
revolutions per day: 15.28314061
mean anomaly at epoch: 154.1825°
orbit number at epoch: 34427

The dashed part of the orbit path shows where the satellite is in the earth's shadow,  

DLR